User: anonymous   Login
Location: Unspecified
(0.0000°N, 0.0000°E)
Time: 14:24:31
(UTC+00:00)
Language:

NNS O-29 - Orbit

View from above orbital plane
View from above orbital plane
View from above satellite
View from above satellite

Ground track
Ground track

The orbit data is extracted from the following two-line orbital elements,

1 18362U 87080B   18171.96783828 +.00000079 +00000-0 +11661-3 0  9996
2 18362 090.3216 347.8175 0107598 141.6468 329.9601 13.44048099508115
Epoch (UTC): 20 June 2018 23:13:41
Eccentricity: 0.0107598
inclination: 90.3216°
perigee height: 1014 km
apogee height: 1174 km
right ascension of ascending node: 347.8175°
argument of perigee: 141.6468°
revolutions per day: 13.44048099
mean anomaly at epoch: 329.9601°
orbit number at epoch: 50811

The dashed part of the orbit path shows where the satellite is in the earth's shadow,  

DLR